Time,TemperatureF,DewpointF,PressureIn,WindDirection,WindDirectionDegrees,WindSpeedMPH,WindSpeedGustMPH,Humidity,HourlyPrecipIn,Conditions,Clouds,dailyrainin,SoftwareType,DateUTC
2013-01-18 00:03:00,17.2,29.7,30.31,SE,129,2.0,6.0,24,-99.99,,,-99.99,meteohub,2013-01-18 06:03:00,
2013-01-18 00:09:00,17.2,29.7,30.31,SE,139,3.0,5.0,24,-99.99,,,-99.99,meteohub,2013-01-18 06:09:00,
2013-01-18 00:14:00,17.4,29.7,30.31,South,177,4.0,5.0,24,-99.99,,,-99.99,meteohub,2013-01-18 06:14:00,
2013-01-18 00:19:00,17.4,29.7,30.31,SSE,150,3.0,6.0,24,-99.99,,,-99.99,meteohub,2013-01-18 06:19:00,
2013-01-18 00:24:00,17.6,29.7,30.31,SSE,155,0.0,6.0,24,-99.99,,,-99.99,meteohub,2013-01-18 06:24:00,
2013-01-18 00:30:00,17.6,29.7,30.31,SSE,161,2.0,6.0,24,-99.99,,,-99.99,meteohub,2013-01-18 06:30:00,
2013-01-18 00:35:00,17.6,29.7,30.28,SE,140,3.0,4.0,24,-99.99,,,-99.99,meteohub,2013-01-18 06:35:00,
2013-01-18 00:40:00,17.6,29.7,30.28,ESE,103,0.0,4.0,24,-99.99,,,-99.99,meteohub,2013-01-18 06:40:00,
2013-01-18 00:46:00,17.6,29.5,30.28,ESE,103,3.0,3.0,24,-99.99,,,-99.99,meteohub,2013-01-18 06:46:00,
2013-01-18 00:51:00,17.6,29.7,30.28,ESE,103,0.0,3.0,24,-99.99,,,-99.99,meteohub,2013-01-18 06:51:00,
2013-01-18 00:57:00,17.6,29.7,30.28,SE,131,0.0,3.0,24,-99.99,,,-99.99,meteohub,2013-01-18 06:57:00,
2013-01-18 01:02:00,17.6,29.5,30.28,ESE,123,0.0,3.0,24,-99.99,,,-99.99,meteohub,2013-01-18 07:02:00,
2013-01-18 01:07:00,17.6,29.5,30.28,East,95,3.0,3.0,24,-99.99,,,-99.99,meteohub,2013-01-18 07:07:00,
2013-01-18 01:13:00,17.6,29.5,30.28,SE,128,0.0,3.0,24,-99.99,,,-99.99,meteohub,2013-01-18 07:13:00,
2013-01-18 01:18:00,17.4,29.5,30.28,ESE,106,0.0,3.0,24,-99.99,,,-99.99,meteohub,2013-01-18 07:18:00,
2013-01-18 01:23:00,17.4,29.5,30.28,SE,124,3.0,3.0,24,-99.99,,,-99.99,meteohub,2013-01-18 07:23:00,
2013-01-18 01:28:00,17.2,29.5,30.28,ESE,111,3.0,4.0,24,-99.99,,,-99.99,meteohub,2013-01-18 07:28:00,
2013-01-18 01:34:00,17.2,29.5,30.25,ESE,103,2.0,4.0,24,-99.99,,,-99.99,meteohub,2013-01-18 07:34:00,
2013-01-18 01:39:00,17.1,29.5,30.25,East,92,4.0,4.0,24,-99.99,,,-99.99,meteohub,2013-01-18 07:39:00,
2013-01-18 01:44:00,17.1,29.5,30.25,ESE,112,3.0,5.0,24,-99.99,,,-99.99,meteohub,2013-01-18 07:44:00,
2013-01-18 01:50:00,17.1,29.5,30.25,ESE,119,0.0,5.0,24,-99.99,,,-99.99,meteohub,2013-01-18 07:50:00,
2013-01-18 01:55:00,16.9,29.5,30.25,ESE,109,2.0,5.0,24,-99.99,,,-99.99,meteohub,2013-01-18 07:55:00,
2013-01-18 02:00:00,16.9,29.5,30.25,ESE,114,4.0,4.0,24,-99.99,,,-99.99,meteohub,2013-01-18 08:00:00,
2013-01-18 02:06:00,16.9,29.5,30.25,SE,126,3.0,4.0,24,-99.99,,,-99.99,meteohub,2013-01-18 08:06:00,
2013-01-18 02:11:00,16.9,29.5,30.25,ENE,68,4.0,5.0,24,-99.99,,,-99.99,meteohub,2013-01-18 08:11:00,
2013-01-18 02:16:00,16.7,29.5,30.25,East,100,3.0,6.0,24,-99.99,,,-99.99,meteohub,2013-01-18 08:16:00,
2013-01-18 02:21:00,16.7,29.5,30.22,ESE,110,4.0,6.0,24,-99.99,,,-99.99,meteohub,2013-01-18 08:21:00,
2013-01-18 02:27:00,16.7,29.5,30.22,ENE,69,4.0,6.0,24,-99.99,,,-99.99,meteohub,2013-01-18 08:27:00,
2013-01-18 02:32:00,16.7,29.5,30.22,ENE,74,5.0,5.0,24,-99.99,,,-99.99,meteohub,2013-01-18 08:32:00,
2013-01-18 02:37:00,16.7,29.3,30.22,ESE,104,3.0,5.0,24,-99.99,,,-99.99,meteohub,2013-01-18 08:37:00,
2013-01-18 02:43:00,16.7,29.3,30.22,East,92,4.0,5.0,24,-99.99,,,-99.99,meteohub,2013-01-18 08:43:00,
2013-01-18 02:48:00,16.7,29.3,30.22,East,79,3.0,5.0,24,-99.99,,,-99.99,meteohub,2013-01-18 08:48:00,
2013-01-18 02:53:00,16.7,29.3,30.22,NE,50,5.0,5.0,24,-99.99,,,-99.99,meteohub,2013-01-18 08:53:00,
2013-01-18 02:59:00,16.9,29.3,30.22,ESE,107,5.0,5.0,24,-99.99,,,-99.99,meteohub,2013-01-18 08:59:00,
2013-01-18 03:04:00,16.9,29.3,30.19,ENE,73,4.0,6.0,24,-99.99,,,-99.99,meteohub,2013-01-18 09:04:00,
2013-01-18 03:09:00,17.1,29.3,30.19,ESE,123,3.0,11.0,24,-99.99,,,-99.99,meteohub,2013-01-18 09:09:00,
2013-01-18 03:15:00,17.1,29.1,30.19,East,92,4.0,11.0,24,-99.99,,,-99.99,meteohub,2013-01-18 09:15:00,
2013-01-18 03:20:00,17.1,29.1,30.19,ENE,65,6.0,7.0,24,-99.99,,,-99.99,meteohub,2013-01-18 09:20:00,
2013-01-18 03:25:00,17.1,29.1,30.19,East,89,5.0,7.0,24,-99.99,,,-99.99,meteohub,2013-01-18 09:25:00,
2013-01-18 03:30:00,17.2,29.1,30.19,East,88,6.0,8.0,24,-99.99,,,-99.99,meteohub,2013-01-18 09:30:00,
2013-01-18 03:36:00,17.4,29.1,30.16,ESE,123,4.0,8.0,24,-99.99,,,-99.99,meteohub,2013-01-18 09:36:00,
2013-01-18 03:41:00,17.4,29.1,30.16,East,85,3.0,8.0,24,-99.99,,,-99.99,meteohub,2013-01-18 09:41:00,
2013-01-18 03:46:00,17.4,28.9,30.16,East,86,4.0,6.0,24,-99.99,,,-99.99,meteohub,2013-01-18 09:46:00,
2013-01-18 03:52:00,17.4,28.9,30.16,East,89,6.0,6.0,24,-99.99,,,-99.99,meteohub,2013-01-18 09:52:00,
2013-01-18 03:57:00,17.6,28.9,30.16,ESE,104,4.0,6.0,24,-99.99,,,-99.99,meteohub,2013-01-18 09:57:00,
2013-01-18 04:02:00,17.6,28.9,30.16,ESE,112,3.0,6.0,24,-99.99,,,-99.99,meteohub,2013-01-18 10:02:00,
2013-01-18 04:08:00,17.8,28.9,30.13,East,99,4.0,6.0,24,-99.99,,,-99.99,meteohub,2013-01-18 10:08:00,
2013-01-18 04:13:00,17.8,28.9,30.13,East,89,3.0,6.0,24,-99.99,,,-99.99,meteohub,2013-01-18 10:13:00,
2013-01-18 04:18:00,17.8,28.9,30.13,East,88,3.0,6.0,24,-99.99,,,-99.99,meteohub,2013-01-18 10:18:00,
2013-01-18 04:24:00,17.8,28.9,30.13,East,97,5.0,9.0,24,-99.99,,,-99.99,meteohub,2013-01-18 10:24:00,
2013-01-18 04:29:00,17.8,28.9,30.13,East,88,4.0,9.0,24,-99.99,,,-99.99,meteohub,2013-01-18 10:29:00,
2013-01-18 04:34:00,17.8,28.9,30.10,East,99,4.0,9.0,24,-99.99,,,-99.99,meteohub,2013-01-18 10:34:00,
2013-01-18 04:40:00,18.0,28.8,30.10,East,85,2.0,6.0,24,-99.99,,,-99.99,meteohub,2013-01-18 10:40:00,
2013-01-18 04:45:00,18.1,28.8,30.10,East,99,0.0,6.0,24,-99.99,,,-99.99,meteohub,2013-01-18 10:45:00,
2013-01-18 04:50:00,18.3,28.8,30.07,ESE,112,3.0,6.0,24,-99.99,,,-99.99,meteohub,2013-01-18 10:50:00,
2013-01-18 04:56:00,18.5,28.8,30.07,East,91,3.0,6.0,24,-99.99,,,-99.99,meteohub,2013-01-18 10:56:00,
2013-01-18 05:01:00,18.7,28.8,30.07,ESE,103,3.0,6.0,24,-99.99,,,-99.99,meteohub,2013-01-18 11:01:00,
2013-01-18 05:06:00,18.9,28.8,30.07,SE,137,4.0,6.0,24,-99.99,,,-99.99,meteohub,2013-01-18 11:06:00,
2013-01-18 05:12:00,19.0,28.8,30.07,SE,127,4.0,6.0,24,-99.99,,,-99.99,meteohub,2013-01-18 11:12:00,
2013-01-18 05:17:00,19.4,28.6,30.07,SE,130,3.0,6.0,24,-99.99,,,-99.99,meteohub,2013-01-18 11:17:00,
2013-01-18 05:22:00,19.4,28.8,30.07,SE,145,4.0,6.0,24,-99.99,,,-99.99,meteohub,2013-01-18 11:22:00,
2013-01-18 05:28:00,19.6,28.6,30.07,SE,141,5.0,8.0,24,-99.99,,,-99.99,meteohub,2013-01-18 11:28:00,
2013-01-18 05:33:00,19.8,28.6,30.07,ESE,116,3.0,8.0,24,-99.99,,,-99.99,meteohub,2013-01-18 11:33:00,
2013-01-18 05:38:00,19.8,28.6,30.07,ESE,115,4.0,6.0,24,-99.99,,,-99.99,meteohub,2013-01-18 11:38:00,
2013-01-18 05:44:00,19.8,28.6,30.07,ESE,122,4.0,6.0,24,-99.99,,,-99.99,meteohub,2013-01-18 11:44:00,
2013-01-18 05:49:00,19.9,28.8,30.07,SE,141,4.0,6.0,24,-99.99,,,-99.99,meteohub,2013-01-18 11:49:00,
2013-01-18 05:54:00,20.1,28.6,30.04,ESE,117,3.0,6.0,24,-99.99,,,-99.99,meteohub,2013-01-18 11:54:00,
2013-01-18 05:59:00,20.3,28.6,30.04,SSE,166,8.0,8.0,24,-99.99,,,-99.99,meteohub,2013-01-18 11:59:00,
2013-01-18 06:05:00,20.3,28.6,30.01,SE,135,5.0,8.0,24,-99.99,,,-99.99,meteohub,2013-01-18 12:05:00,
2013-01-18 06:10:00,20.5,28.6,30.01,SE,128,8.0,8.0,24,-99.99,,,-99.99,meteohub,2013-01-18 12:10:00,
2013-01-18 06:15:00,20.5,28.8,30.01,ESE,107,6.0,15.0,24,-99.99,,,-99.99,meteohub,2013-01-18 12:15:00,
2013-01-18 06:21:00,20.5,28.8,30.01,SSE,159,4.0,15.0,24,-99.99,,,-99.99,meteohub,2013-01-18 12:21:00,
2013-01-18 06:26:00,20.7,28.8,30.01,South,175,8.0,10.0,24,-99.99,,,-99.99,meteohub,2013-01-18 12:26:00,
2013-01-18 06:31:00,20.7,28.8,30.01,SSE,162,5.0,10.0,24,-99.99,,,-99.99,meteohub,2013-01-18 12:31:00,
2013-01-18 06:37:00,20.8,28.8,30.01,ESE,109,6.0,10.0,24,-99.99,,,-99.99,meteohub,2013-01-18 12:37:00,
2013-01-18 06:42:00,20.8,28.8,30.01,ESE,111,4.0,10.0,24,-99.99,,,-99.99,meteohub,2013-01-18 12:42:00,
2013-01-18 06:47:00,20.8,28.8,30.01,SE,128,3.0,8.0,24,-99.99,,,-99.99,meteohub,2013-01-18 12:47:00,
2013-01-18 06:52:00,21.0,28.9,29.99,ESE,108,4.0,8.0,24,-99.99,,,-99.99,meteohub,2013-01-18 12:52:00,
2013-01-18 06:58:00,21.0,28.9,29.99,ESE,109,3.0,8.0,24,-99.99,,,-99.99,meteohub,2013-01-18 12:58:00,
2013-01-18 07:03:00,21.2,28.9,29.99,SE,138,4.0,8.0,24,-99.99,,,-99.99,meteohub,2013-01-18 13:03:00,
2013-01-18 07:08:00,21.4,28.9,29.99,East,98,4.0,6.0,24,-99.99,,,-99.99,meteohub,2013-01-18 13:08:00,
2013-01-18 07:14:00,21.6,28.9,29.99,ESE,112,3.0,6.0,24,-99.99,,,-99.99,meteohub,2013-01-18 13:14:00,
2013-01-18 07:19:00,21.9,28.9,29.96,ESE,122,4.0,6.0,24,-99.99,,,-99.99,meteohub,2013-01-18 13:19:00,
2013-01-18 07:24:00,22.1,28.9,29.96,ESE,117,2.0,6.0,24,-99.99,,,-99.99,meteohub,2013-01-18 13:24:00,
2013-01-18 07:29:00,22.3,28.9,29.96,SE,144,5.0,6.0,24,-99.99,,,-99.99,meteohub,2013-01-18 13:29:00,
2013-01-18 07:35:00,22.3,28.8,29.96,SE,137,4.0,8.0,24,-99.99,,,-99.99,meteohub,2013-01-18 13:35:00,
2013-01-18 07:40:00,22.5,28.8,29.96,East,97,5.0,8.0,24,-99.99,,,-99.99,meteohub,2013-01-18 13:40:00,
2013-01-18 07:45:00,22.6,28.8,29.96,SE,133,5.0,8.0,24,-99.99,,,-99.99,meteohub,2013-01-18 13:45:00,
2013-01-18 07:51:00,22.6,28.8,29.96,South,170,6.0,8.0,24,-99.99,,,-99.99,meteohub,2013-01-18 13:51:00,
2013-01-18 07:56:00,22.8,28.8,29.96,ESE,115,8.0,9.0,24,-99.99,,,-99.99,meteohub,2013-01-18 13:56:00,
2013-01-18 08:01:00,23.4,28.6,29.96,SSE,162,6.0,9.0,24,-99.99,,,-99.99,meteohub,2013-01-18 14:01:00,
2013-01-18 08:07:00,23.5,28.6,29.96,SE,128,8.0,10.0,24,-99.99,,,-99.99,meteohub,2013-01-18 14:07:00,
2013-01-18 08:12:00,23.7,28.6,29.96,SE,131,4.0,8.0,24,-99.99,,,-99.99,meteohub,2013-01-18 14:12:00,
2013-01-18 08:17:00,23.9,28.6,29.96,ESE,110,4.0,8.0,24,-99.99,,,-99.99,meteohub,2013-01-18 14:17:00,
2013-01-18 08:22:00,24.1,28.6,29.93,SE,129,3.0,8.0,24,-99.99,,,-99.99,meteohub,2013-01-18 14:22:00,
2013-01-18 08:28:00,24.3,28.4,29.93,SE,129,3.0,8.0,24,-99.99,,,-99.99,meteohub,2013-01-18 14:28:00,
2013-01-18 08:33:00,24.4,28.4,29.93,SE,146,3.0,8.0,24,-99.99,,,-99.99,meteohub,2013-01-18 14:33:00,
2013-01-18 08:38:00,24.4,28.4,29.93,SE,142,3.0,8.0,24,-99.99,,,-99.99,meteohub,2013-01-18 14:38:00,
2013-01-18 08:44:00,24.8,28.4,29.93,SSE,152,3.0,5.0,24,-99.99,,,-99.99,meteohub,2013-01-18 14:44:00,
2013-01-18 08:49:00,25.2,28.4,29.93,SSE,154,3.0,5.0,24,-99.99,,,-99.99,meteohub,2013-01-18 14:49:00,
2013-01-18 08:54:00,25.7,28.4,29.93,SSE,160,4.0,5.0,24,-99.99,,,-99.99,meteohub,2013-01-18 14:54:00,
2013-01-18 09:00:00,26.2,28.4,29.93,SE,135,4.0,5.0,24,-99.99,,,-99.99,meteohub,2013-01-18 15:00:00,
2013-01-18 09:05:00,26.8,28.4,29.90,SSE,153,3.0,6.0,24,-99.99,,,-99.99,meteohub,2013-01-18 15:05:00,
2013-01-18 09:10:00,27.3,28.4,29.90,South,169,3.0,9.0,24,-99.99,,,-99.99,meteohub,2013-01-18 15:10:00,
2013-01-18 09:15:00,27.9,28.4,29.90,South,175,6.0,9.0,24,-99.99,,,-99.99,meteohub,2013-01-18 15:15:00,
2013-01-18 09:21:00,28.6,28.4,29.90,SE,125,3.0,9.0,24,-99.99,,,-99.99,meteohub,2013-01-18 15:21:00,
2013-01-18 09:26:00,29.3,28.4,29.90,SE,130,4.0,8.0,24,-99.99,,,-99.99,meteohub,2013-01-18 15:26:00,
2013-01-18 09:31:00,29.5,28.2,29.90,SE,135,6.0,6.0,24,-99.99,,,-99.99,meteohub,2013-01-18 15:31:00,
2013-01-18 09:37:00,29.7,28.2,29.90,SSE,166,3.0,7.0,24,-99.99,,,-99.99,meteohub,2013-01-18 15:37:00,
2013-01-18 09:42:00,30.2,28.2,29.90,SSE,166,4.0,7.0,24,-99.99,,,-99.99,meteohub,2013-01-18 15:42:00,
2013-01-18 09:47:00,30.4,28.2,29.90,SE,143,4.0,7.0,24,-99.99,,,-99.99,meteohub,2013-01-18 15:47:00,
2013-01-18 09:53:00,30.7,28.2,29.90,SSE,152,3.0,6.0,24,-99.99,,,-99.99,meteohub,2013-01-18 15:53:00,
2013-01-18 09:58:00,31.1,28.2,29.90,SSE,147,4.0,6.0,24,-99.99,,,-99.99,meteohub,2013-01-18 15:58:00,
2013-01-18 10:03:00,31.3,28.2,29.90,South,176,5.0,6.0,24,-99.99,,,-99.99,meteohub,2013-01-18 16:03:00,
2013-01-18 10:09:00,31.6,28.0,29.90,SSE,153,3.0,6.0,24,-99.99,,,-99.99,meteohub,2013-01-18 16:09:00,
2013-01-18 10:14:00,31.8,28.2,29.90,SSE,165,3.0,6.0,24,-99.99,,,-99.99,meteohub,2013-01-18 16:14:00,
2013-01-18 10:19:00,32.2,28.0,29.90,SSE,168,4.0,6.0,24,-99.99,,,-99.99,meteohub,2013-01-18 16:19:00,
2013-01-18 10:25:00,32.4,28.0,29.90,SSW,194,6.0,6.0,24,-99.99,,,-99.99,meteohub,2013-01-18 16:25:00,
2013-01-18 10:30:00,32.5,28.0,29.90,South,172,3.0,6.0,24,-99.99,,,-99.99,meteohub,2013-01-18 16:30:00,
2013-01-18 10:35:00,32.7,28.0,29.90,SSE,157,8.0,8.0,24,-99.99,,,-99.99,meteohub,2013-01-18 16:35:00,
2013-01-18 10:41:00,33.1,28.0,29.90,SSE,160,4.0,6.0,24,-99.99,,,-99.99,meteohub,2013-01-18 16:41:00,
2013-01-18 10:46:00,33.3,28.0,29.90,ESE,119,5.0,8.0,24,-99.99,,,-99.99,meteohub,2013-01-18 16:46:00,
2013-01-18 10:51:00,33.6,28.0,29.87,SE,142,3.0,8.0,24,-99.99,,,-99.99,meteohub,2013-01-18 16:51:00,
2013-01-18 10:56:00,33.8,28.0,29.87,SSE,155,3.0,7.0,24,-99.99,,,-99.99,meteohub,2013-01-18 16:56:00,
2013-01-18 11:02:00,34.3,28.0,29.87,SSE,159,5.0,7.0,24,-99.99,,,-99.99,meteohub,2013-01-18 17:02:00,
2013-01-18 11:07:00,35.1,28.0,29.87,South,187,3.0,7.0,24,-99.99,,,-99.99,meteohub,2013-01-18 17:07:00,
2013-01-18 11:12:00,36.1,28.0,29.87,SSE,164,5.0,8.0,24,-99.99,,,-99.99,meteohub,2013-01-18 17:12:00,
2013-01-18 11:18:00,37.0,28.0,29.87,SSW,204,4.0,8.0,24,-99.99,,,-99.99,meteohub,2013-01-18 17:18:00,
2013-01-18 11:23:00,37.9,28.0,29.84,SSE,151,2.0,8.0,24,-99.99,,,-99.99,meteohub,2013-01-18 17:23:00,
2013-01-18 11:28:00,38.5,27.9,29.84,South,176,9.0,9.0,24,-99.99,,,-99.99,meteohub,2013-01-18 17:28:00,
2013-01-18 11:34:00,38.8,27.9,29.84,South,187,3.0,9.0,24,-99.99,,,-99.99,meteohub,2013-01-18 17:34:00,
2013-01-18 11:39:00,39.4,28.0,29.84,ESE,120,4.0,10.0,24,-99.99,,,-99.99,meteohub,2013-01-18 17:39:00,
2013-01-18 11:44:00,40.3,28.0,29.84,SSE,152,4.0,10.0,24,-99.99,,,-99.99,meteohub,2013-01-18 17:44:00,
2013-01-18 11:50:00,40.6,28.0,29.84,WSW,248,5.0,10.0,24,-99.99,,,-99.99,meteohub,2013-01-18 17:50:00,
2013-01-18 11:55:00,41.0,27.9,29.84,WSW,237,4.0,8.0,24,-99.99,,,-99.99,meteohub,2013-01-18 17:55:00,
2013-01-18 12:00:00,41.0,27.9,29.84,SSW,194,3.0,8.0,24,-99.99,,,-99.99,meteohub,2013-01-18 18:00:00,
2013-01-18 12:06:00,41.0,27.9,29.84,SW,217,6.0,9.0,24,-99.99,,,-99.99,meteohub,2013-01-18 18:06:00,
2013-01-18 12:11:00,40.8,27.9,29.84,SE,138,4.0,9.0,24,-99.99,,,-99.99,meteohub,2013-01-18 18:11:00,
2013-01-18 12:16:00,41.0,28.0,29.84,SSW,203,5.0,8.0,24,-99.99,,,-99.99,meteohub,2013-01-18 18:16:00,
2013-01-18 12:22:00,41.4,27.9,29.81,SSW,209,3.0,11.0,24,-99.99,,,-99.99,meteohub,2013-01-18 18:22:00,
2013-01-18 12:27:00,41.7,27.9,29.81,SSE,160,4.0,11.0,24,-99.99,,,-99.99,meteohub,2013-01-18 18:27:00,
2013-01-18 12:32:00,41.9,27.9,29.81,SW,225,3.0,11.0,24,-99.99,,,-99.99,meteohub,2013-01-18 18:32:00,
2013-01-18 12:37:00,41.7,27.9,29.81,SW,222,5.0,11.0,24,-99.99,,,-99.99,meteohub,2013-01-18 18:37:00,
2013-01-18 12:42:00,41.5,28.0,29.81,South,189,4.0,11.0,24,-99.99,,,-99.99,meteohub,2013-01-18 18:42:00,
2013-01-18 12:48:00,41.5,28.0,29.81,SSW,212,5.0,8.0,24,-99.99,,,-99.99,meteohub,2013-01-18 18:48:00,
2013-01-18 12:53:00,41.5,27.9,29.78,SW,231,5.0,8.0,24,-99.99,,,-99.99,meteohub,2013-01-18 18:53:00,
2013-01-18 12:58:00,41.5,27.9,29.78,SSE,164,3.0,8.0,24,-99.99,,,-99.99,meteohub,2013-01-18 18:58:00,
2013-01-18 13:04:00,41.9,27.9,29.81,SW,226,5.0,8.0,24,-99.99,,,-99.99,meteohub,2013-01-18 19:04:00,
2013-01-18 13:09:00,41.9,27.9,29.81,SW,232,3.0,11.0,24,-99.99,,,-99.99,meteohub,2013-01-18 19:09:00,
2013-01-18 13:14:00,41.9,27.9,29.81,SSW,195,5.0,11.0,24,-99.99,,,-99.99,meteohub,2013-01-18 19:14:00,
2013-01-18 13:20:00,41.9,27.9,29.81,South,187,5.0,11.0,24,-99.99,,,-99.99,meteohub,2013-01-18 19:20:00,
2013-01-18 13:25:00,41.7,27.9,29.81,SSW,207,5.0,8.0,24,-99.99,,,-99.99,meteohub,2013-01-18 19:25:00,
2013-01-18 13:30:00,41.5,27.9,29.81,SW,216,5.0,9.0,24,-99.99,,,-99.99,meteohub,2013-01-18 19:30:00,
2013-01-18 13:36:00,41.9,27.9,29.81,WSW,248,4.0,9.0,24,-99.99,,,-99.99,meteohub,2013-01-18 19:36:00,
2013-01-18 13:41:00,42.1,27.9,29.81,West,260,5.0,9.0,24,-99.99,,,-99.99,meteohub,2013-01-18 19:41:00,
2013-01-18 13:46:00,41.5,27.9,29.81,SW,221,3.0,10.0,24,-99.99,,,-99.99,meteohub,2013-01-18 19:46:00,
2013-01-18 13:52:00,41.4,27.9,29.81,SW,234,5.0,9.0,24,-99.99,,,-99.99,meteohub,2013-01-18 19:52:00,
2013-01-18 13:57:00,41.0,27.9,29.81,SW,219,4.0,11.0,24,-99.99,,,-99.99,meteohub,2013-01-18 19:57:00,
2013-01-18 14:02:00,40.8,27.9,29.81,SW,227,5.0,11.0,24,-99.99,,,-99.99,meteohub,2013-01-18 20:02:00,
2013-01-18 14:08:00,40.6,27.9,29.81,West,272,6.0,8.0,24,-99.99,,,-99.99,meteohub,2013-01-18 20:08:00,
2013-01-18 14:13:00,40.3,27.9,29.81,SSW,209,4.0,8.0,24,-99.99,,,-99.99,meteohub,2013-01-18 20:13:00,
2013-01-18 14:18:00,40.1,27.9,29.81,South,169,5.0,8.0,24,-99.99,,,-99.99,meteohub,2013-01-18 20:18:00,
2013-01-18 14:23:00,40.1,27.9,29.81,SSW,213,6.0,8.0,24,-99.99,,,-99.99,meteohub,2013-01-18 20:23:00,
2013-01-18 14:29:00,40.1,27.9,29.81,WSW,243,4.0,8.0,24,-99.99,,,-99.99,meteohub,2013-01-18 20:29:00,
2013-01-18 14:34:00,40.1,27.9,29.78,SW,214,3.0,8.0,24,-99.99,,,-99.99,meteohub,2013-01-18 20:34:00,
2013-01-18 14:39:00,40.1,27.9,29.78,SW,226,5.0,10.0,24,-99.99,,,-99.99,meteohub,2013-01-18 20:39:00,
2013-01-18 14:45:00,40.3,27.9,29.78,WSW,250,8.0,10.0,24,-99.99,,,-99.99,meteohub,2013-01-18 20:45:00,
2013-01-18 14:50:00,40.1,27.9,29.81,West,274,5.0,10.0,24,-99.99,,,-99.99,meteohub,2013-01-18 20:50:00,
2013-01-18 14:55:00,40.1,27.9,29.81,SW,227,4.0,9.0,24,-99.99,,,-99.99,meteohub,2013-01-18 20:55:00,
2013-01-18 15:01:00,40.1,27.9,29.81,SW,226,6.0,9.0,24,-99.99,,,-99.99,meteohub,2013-01-18 21:01:00,
2013-01-18 15:06:00,39.7,27.9,29.81,West,268,6.0,8.0,24,-99.99,,,-99.99,meteohub,2013-01-18 21:06:00,
2013-01-18 15:11:00,39.4,27.9,29.81,SW,216,4.0,8.0,24,-99.99,,,-99.99,meteohub,2013-01-18 21:11:00,
2013-01-18 15:16:00,39.2,27.9,29.81,SW,233,6.0,9.0,24,-99.99,,,-99.99,meteohub,2013-01-18 21:16:00,
2013-01-18 15:22:00,38.8,27.9,29.81,SW,236,4.0,11.0,24,-99.99,,,-99.99,meteohub,2013-01-18 21:22:00,
2013-01-18 15:27:00,38.7,27.9,29.81,SW,232,4.0,11.0,24,-99.99,,,-99.99,meteohub,2013-01-18 21:27:00,
2013-01-18 15:32:00,38.5,27.9,29.81,WSW,250,6.0,8.0,24,-99.99,,,-99.99,meteohub,2013-01-18 21:32:00,
2013-01-18 15:38:00,38.3,27.9,29.81,West,261,4.0,7.0,24,-99.99,,,-99.99,meteohub,2013-01-18 21:38:00,
2013-01-18 15:43:00,38.1,27.9,29.81,WSW,251,4.0,8.0,24,-99.99,,,-99.99,meteohub,2013-01-18 21:43:00,
2013-01-18 15:48:00,38.1,28.0,29.81,SW,224,3.0,8.0,24,-99.99,,,-99.99,meteohub,2013-01-18 21:48:00,
2013-01-18 15:54:00,38.1,28.0,29.81,SW,214,4.0,8.0,24,-99.99,,,-99.99,meteohub,2013-01-18 21:54:00,
2013-01-18 15:59:00,38.1,27.9,29.81,WSW,243,5.0,5.0,24,-99.99,,,-99.99,meteohub,2013-01-18 21:59:00,
2013-01-18 16:04:00,38.1,27.9,29.81,WSW,240,2.0,5.0,24,-99.99,,,-99.99,meteohub,2013-01-18 22:04:00,
2013-01-18 16:10:00,37.9,28.0,29.81,WSW,238,4.0,6.0,24,-99.99,,,-99.99,meteohub,2013-01-18 22:10:00,
2013-01-18 16:15:00,37.9,28.0,29.81,SW,227,3.0,6.0,24,-99.99,,,-99.99,meteohub,2013-01-18 22:15:00,
2013-01-18 16:20:00,37.8,28.0,29.81,West,272,3.0,6.0,24,-99.99,,,-99.99,meteohub,2013-01-18 22:20:00,
2013-01-18 16:25:00,37.6,28.0,29.81,WSW,241,4.0,6.0,24,-99.99,,,-99.99,meteohub,2013-01-18 22:25:00,
2013-01-18 16:31:00,37.4,28.0,29.81,SW,227,3.0,7.0,24,-99.99,,,-99.99,meteohub,2013-01-18 22:31:00,
2013-01-18 16:36:00,37.2,28.0,29.84,WSW,237,3.0,7.0,24,-99.99,,,-99.99,meteohub,2013-01-18 22:36:00,
2013-01-18 16:42:00,37.0,28.0,29.84,SW,217,4.0,6.0,24,-99.99,,,-99.99,meteohub,2013-01-18 22:42:00,
2013-01-18 16:47:00,36.9,28.0,29.84,SW,227,3.0,6.0,24,-99.99,,,-99.99,meteohub,2013-01-18 22:47:00,
2013-01-18 16:52:00,36.7,28.0,29.81,WSW,247,3.0,8.0,24,-99.99,,,-99.99,meteohub,2013-01-18 22:52:00,
2013-01-18 16:58:00,36.7,28.0,29.81,WSW,241,4.0,8.0,24,-99.99,,,-99.99,meteohub,2013-01-18 22:58:00,
2013-01-18 17:03:00,36.3,28.0,29.81,WSW,246,3.0,8.0,24,-99.99,,,-99.99,meteohub,2013-01-18 23:03:00,
2013-01-18 17:08:00,36.3,27.9,29.84,WSW,245,3.0,6.0,24,-99.99,,,-99.99,meteohub,2013-01-18 23:08:00,
2013-01-18 17:14:00,36.1,28.0,29.84,SW,232,3.0,6.0,24,-99.99,,,-99.99,meteohub,2013-01-18 23:14:00,
2013-01-18 17:19:00,35.8,28.0,29.84,WSW,241,3.0,6.0,24,-99.99,,,-99.99,meteohub,2013-01-18 23:19:00,
2013-01-18 17:24:00,35.6,27.9,29.84,SW,232,2.0,5.0,24,-99.99,,,-99.99,meteohub,2013-01-18 23:24:00,
2013-01-18 17:30:00,35.4,27.9,29.84,SW,232,0.0,5.0,24,-99.99,,,-99.99,meteohub,2013-01-18 23:30:00,
2013-01-18 17:35:00,35.1,28.0,29.84,SW,233,3.0,4.0,24,-99.99,,,-99.99,meteohub,2013-01-18 23:35:00,
2013-01-18 17:40:00,34.9,27.9,29.84,SW,233,2.0,4.0,24,-99.99,,,-99.99,meteohub,2013-01-18 23:40:00,
2013-01-18 17:46:00,34.9,27.9,29.84,SW,226,3.0,3.0,24,-99.99,,,-99.99,meteohub,2013-01-18 23:46:00,
2013-01-18 17:51:00,34.7,27.9,29.84,WSW,245,3.0,3.0,24,-99.99,,,-99.99,meteohub,2013-01-18 23:51:00,
2013-01-18 17:56:00,34.7,27.9,29.84,SW,221,2.0,5.0,24,-99.99,,,-99.99,meteohub,2013-01-18 23:56:00,
2013-01-18 18:02:00,34.5,27.9,29.84,WSW,246,3.0,5.0,24,-99.99,,,-99.99,meteohub,2013-01-19 00:02:00,
2013-01-18 18:07:00,34.5,27.9,29.84,SW,226,0.0,5.0,24,-99.99,,,-99.99,meteohub,2013-01-19 00:07:00,
2013-01-18 18:12:00,34.3,27.9,29.84,SW,235,0.0,4.0,24,-99.99,,,-99.99,meteohub,2013-01-19 00:12:00,
2013-01-18 18:18:00,34.2,27.9,29.84,SW,233,2.0,4.0,24,-99.99,,,-99.99,meteohub,2013-01-19 00:18:00,
2013-01-18 18:23:00,34.0,27.9,29.84,WSW,246,3.0,4.0,24,-99.99,,,-99.99,meteohub,2013-01-19 00:23:00,
2013-01-18 18:28:00,33.8,27.9,29.84,WSW,240,3.0,5.0,24,-99.99,,,-99.99,meteohub,2013-01-19 00:28:00,
2013-01-18 18:33:00,33.6,27.9,29.84,SW,234,2.0,4.0,24,-99.99,,,-99.99,meteohub,2013-01-19 00:33:00,
2013-01-18 18:39:00,33.6,27.9,29.84,SW,229,3.0,4.0,24,-99.99,,,-99.99,meteohub,2013-01-19 00:39:00,
2013-01-18 18:44:00,33.4,27.9,29.84,SW,228,2.0,4.0,24,-99.99,,,-99.99,meteohub,2013-01-19 00:44:00,
2013-01-18 18:49:00,33.3,27.9,29.84,SW,216,3.0,4.0,24,-99.99,,,-99.99,meteohub,2013-01-19 00:49:00,
2013-01-18 18:55:00,33.3,27.9,29.84,SW,230,3.0,3.0,24,-99.99,,,-99.99,meteohub,2013-01-19 00:55:00,
2013-01-18 19:00:00,33.3,27.9,29.84,SSW,212,2.0,4.0,24,-99.99,,,-99.99,meteohub,2013-01-19 01:00:00,
2013-01-18 19:05:00,33.1,27.9,29.87,SW,236,3.0,4.0,24,-99.99,,,-99.99,meteohub,2013-01-19 01:05:00,
2013-01-18 19:10:00,33.1,27.9,29.87,SW,229,3.0,4.0,24,-99.99,,,-99.99,meteohub,2013-01-19 01:10:00,
2013-01-18 19:16:00,32.9,27.9,29.87,SW,221,3.0,4.0,24,-99.99,,,-99.99,meteohub,2013-01-19 01:16:00,
2013-01-18 19:21:00,32.7,27.9,29.87,SW,220,0.0,4.0,24,-99.99,,,-99.99,meteohub,2013-01-19 01:21:00,
2013-01-18 19:26:00,32.5,27.7,29.87,SW,220,0.0,3.0,24,-99.99,,,-99.99,meteohub,2013-01-19 01:26:00,
2013-01-18 19:32:00,32.4,27.9,29.87,SW,221,0.0,2.0,24,-99.99,,,-99.99,meteohub,2013-01-19 01:32:00,
2013-01-18 19:37:00,32.2,27.7,29.84,SW,221,0.0,0.0,24,-99.99,,,-99.99,meteohub,2013-01-19 01:37:00,
2013-01-18 19:42:00,31.6,27.7,29.84,SW,221,0.0,0.0,24,-99.99,,,-99.99,meteohub,2013-01-19 01:42:00,
2013-01-18 19:47:00,31.1,27.7,29.84,SW,221,0.0,0.0,24,-99.99,,,-99.99,meteohub,2013-01-19 01:47:00,
2013-01-18 19:53:00,30.9,27.7,29.87,SW,220,0.0,0.0,24,-99.99,,,-99.99,meteohub,2013-01-19 01:53:00,
2013-01-18 19:58:00,30.6,27.7,29.87,SW,221,0.0,0.0,24,-99.99,,,-99.99,meteohub,2013-01-19 01:58:00,
2013-01-18 20:03:00,30.4,27.7,29.87,SW,221,0.0,0.0,24,-99.99,,,-99.99,meteohub,2013-01-19 02:03:00,
2013-01-18 20:09:00,30.4,27.7,29.87,SW,221,0.0,0.0,24,-99.99,,,-99.99,meteohub,2013-01-19 02:09:00,
2013-01-18 20:14:00,30.0,27.7,29.87,SW,221,0.0,0.0,24,-99.99,,,-99.99,meteohub,2013-01-19 02:14:00,
2013-01-18 20:20:00,29.8,27.7,29.87,SW,221,0.0,0.0,24,-99.99,,,-99.99,meteohub,2013-01-19 02:20:00,
2013-01-18 20:25:00,29.7,27.7,29.87,SW,221,0.0,0.0,24,-99.99,,,-99.99,meteohub,2013-01-19 02:25:00,
2013-01-18 20:30:00,29.5,27.7,29.87,SW,221,0.0,0.0,24,-99.99,,,-99.99,meteohub,2013-01-19 02:30:00,
2013-01-18 20:35:00,29.3,27.7,29.87,SW,221,0.0,0.0,24,-99.99,,,-99.99,meteohub,2013-01-19 02:35:00,
2013-01-18 20:41:00,29.5,27.9,29.87,SW,221,0.0,0.0,24,-99.99,,,-99.99,meteohub,2013-01-19 02:41:00,
2013-01-18 20:46:00,29.5,28.0,29.87,SW,220,0.0,0.0,24,-99.99,,,-99.99,meteohub,2013-01-19 02:46:00,
2013-01-18 20:51:00,29.5,28.2,29.87,South,186,0.0,0.0,24,-99.99,,,-99.99,meteohub,2013-01-19 02:51:00,
2013-01-18 20:57:00,29.3,28.4,29.87,South,186,0.0,0.0,24,-99.99,,,-99.99,meteohub,2013-01-19 02:57:00,
2013-01-18 21:02:00,29.3,28.4,29.87,South,186,0.0,0.0,24,-99.99,,,-99.99,meteohub,2013-01-19 03:02:00,
2013-01-18 21:07:00,29.1,28.4,29.87,South,186,0.0,0.0,24,-99.99,,,-99.99,meteohub,2013-01-19 03:07:00,
2013-01-18 21:12:00,28.8,28.4,29.87,South,186,0.0,0.0,24,-99.99,,,-99.99,meteohub,2013-01-19 03:12:00,
2013-01-18 21:17:00,28.6,28.4,29.87,South,186,0.0,0.0,24,-99.99,,,-99.99,meteohub,2013-01-19 03:17:00,
2013-01-18 21:23:00,28.8,28.4,29.84,South,186,0.0,0.0,24,-99.99,,,-99.99,meteohub,2013-01-19 03:23:00,
2013-01-18 21:28:00,28.8,28.4,29.84,South,186,0.0,0.0,24,-99.99,,,-99.99,meteohub,2013-01-19 03:28:00,
2013-01-18 21:33:00,28.9,28.4,29.84,South,186,0.0,0.0,24,-99.99,,,-99.99,meteohub,2013-01-19 03:33:00,
2013-01-18 21:39:00,28.9,28.4,29.87,South,186,0.0,0.0,24,-99.99,,,-99.99,meteohub,2013-01-19 03:39:00,
2013-01-18 21:44:00,28.8,28.4,29.87,South,186,0.0,0.0,24,-99.99,,,-99.99,meteohub,2013-01-19 03:44:00,
2013-01-18 21:49:00,28.4,28.4,29.84,South,185,0.0,0.0,24,-99.99,,,-99.99,meteohub,2013-01-19 03:49:00,
2013-01-18 21:55:00,28.2,28.6,29.84,South,186,0.0,0.0,24,-99.99,,,-99.99,meteohub,2013-01-19 03:55:00,
2013-01-18 22:00:00,28.2,28.6,29.84,SSE,168,0.0,0.0,24,-99.99,,,-99.99,meteohub,2013-01-19 04:00:00,
2013-01-18 22:05:00,28.0,28.4,29.84,SSE,168,0.0,0.0,24,-99.99,,,-99.99,meteohub,2013-01-19 04:05:00,
2013-01-18 22:10:00,28.2,28.4,29.84,SSE,168,0.0,0.0,24,-99.99,,,-99.99,meteohub,2013-01-19 04:10:00,
2013-01-18 22:16:00,28.4,28.4,29.84,SSE,168,0.0,0.0,24,-99.99,,,-99.99,meteohub,2013-01-19 04:16:00,
2013-01-18 22:21:00,28.4,28.4,29.84,SSE,168,0.0,0.0,24,-99.99,,,-99.99,meteohub,2013-01-19 04:21:00,
2013-01-18 22:26:00,28.4,28.4,29.84,SSE,168,0.0,0.0,24,-99.99,,,-99.99,meteohub,2013-01-19 04:26:00,
2013-01-18 22:32:00,28.2,28.4,29.84,SSE,168,0.0,0.0,24,-99.99,,,-99.99,meteohub,2013-01-19 04:32:00,
2013-01-18 22:37:00,28.0,28.4,29.87,SSE,168,0.0,0.0,24,-99.99,,,-99.99,meteohub,2013-01-19 04:37:00,
2013-01-18 22:42:00,28.0,28.4,29.87,SSE,168,0.0,0.0,24,-99.99,,,-99.99,meteohub,2013-01-19 04:42:00,
2013-01-18 22:48:00,27.7,28.4,29.87,SSE,168,0.0,0.0,24,-99.99,,,-99.99,meteohub,2013-01-19 04:48:00,
2013-01-18 22:53:00,27.7,29.1,29.87,SSE,168,0.0,0.0,25,-99.99,,,-99.99,meteohub,2013-01-19 04:53:00,
2013-01-18 22:58:00,27.7,29.1,29.87,SSE,168,0.0,0.0,25,-99.99,,,-99.99,meteohub,2013-01-19 04:58:00,
2013-01-18 23:00:00,27.9,29.1,29.87,SSE,168,0.0,0.0,25,-99.99,,,-99.99,meteohub,2013-01-19 05:00:00,
2013-01-18 23:01:00,27.9,29.1,29.87,SSE,168,0.0,0.0,25,-99.99,,,-99.99,meteohub,2013-01-19 05:01:00,
2013-01-18 23:05:00,27.7,29.1,29.87,SSE,168,0.0,0.0,25,-99.99,,,-99.99,meteohub,2013-01-19 05:05:00,
2013-01-18 23:06:00,27.7,29.1,29.87,SSE,168,0.0,0.0,25,-99.99,,,-99.99,meteohub,2013-01-19 05:06:00,
2013-01-18 23:11:00,27.5,29.1,29.87,SSE,168,0.0,0.0,25,-99.99,,,-99.99,meteohub,2013-01-19 05:11:00,
2013-01-18 23:17:00,27.5,28.9,29.87,SSE,168,0.0,0.0,25,-99.99,,,-99.99,meteohub,2013-01-19 05:17:00,
2013-01-18 23:22:00,27.5,28.9,29.87,SSE,168,0.0,0.0,25,-99.99,,,-99.99,meteohub,2013-01-19 05:22:00,
2013-01-18 23:27:00,27.7,28.9,29.87,SSE,168,0.0,0.0,25,-99.99,,,-99.99,meteohub,2013-01-19 05:27:00,
2013-01-18 23:32:00,27.7,28.9,29.87,SSE,168,0.0,0.0,25,-99.99,,,-99.99,meteohub,2013-01-19 05:32:00,
2013-01-18 23:37:00,27.9,28.9,29.87,SSE,168,0.0,0.0,25,-99.99,,,-99.99,meteohub,2013-01-19 05:37:00,
2013-01-18 23:43:00,27.9,28.9,29.87,SSE,168,0.0,0.0,25,-99.99,,,-99.99,meteohub,2013-01-19 05:43:00,
2013-01-18 23:48:00,27.9,28.9,29.87,SSE,168,0.0,0.0,25,-99.99,,,-99.99,meteohub,2013-01-19 05:48:00,
2013-01-18 23:53:00,27.9,28.9,29.87,SSE,168,0.0,0.0,25,-99.99,,,-99.99,meteohub,2013-01-19 05:53:00,
2013-01-18 23:59:00,27.9,28.9,29.87,SSE,168,0.0,0.0,25,-99.99,,,-99.99,meteohub,2013-01-19 05:59:00,